QPF
0.00 0.00 0.00 0.00 0.00 0.01 0.03 0.02 0.01 0.01 0.01 0.00 0.00 0.00 0.00 0.00 0.00 0.00 0.00 0.00 0.00 0.00 0.00 0.00 0.00 0.00 0.00 0.00 0.00 0.00 0.00 0.00 0.00 0.00 0.00 0.00 0.00 0.00 0.00 0.00 0.00 0.00 0.00 0.00 0.00 0.00 0.00 0.00 0.00 0.00 0.00 0.00 0.00 0.00
0.00 0.00 0.00 0.00 0.00 0.00 0.01 0.03 0.03 0.01 0.01 0.00 0.00 0.00 0.00 0.00 0.00 0.00 0.00 0.00 0.00 0.00 0.00 0.00 0.00 0.00 0.00 0.00 0.00 0.00 0.00 0.00 0.00 0.00 0.00 0.00 0.00 0.00 0.00 0.00 0.00 0.00 0.00 0.00 0.00 0.00 0.00 0.00 0.00 0.00 0.01 0.00 0.00 0.00
0.00 0.00 0.00 0.00 0.00 0.00 0.00 0.01 0.03 0.02 0.01 0.01 0.00 0.00 0.00 0.00 0.00 0.00 0.00 0.00 0.00 0.00 0.00 0.00 0.00 0.00 0.00 0.00 0.00 0.00 0.00 0.00 0.00 0.00 0.00 0.00 0.00 0.00 0.00 0.00 0.00 0.00 0.00 0.00 0.00 0.00 0.00 0.00 0.00 0.00 0.00 0.00 0.00 0.00
0.00 0.00 0.00 0.01 0.00 0.00 0.00 0.00 0.01 0.02 0.02 0.02 0.01 0.00 0.00 0.00 0.00 0.00 0.00 0.00 0.00 0.00 0.00 0.00 0.00 0.00 0.00 0.00 0.00 0.00 0.00 0.00 0.00 0.00 0.00 0.00 0.00 0.00 0.00 0.00 0.00 0.00 0.00 0.00 0.00 0.00 0.00 0.00 0.00 0.00 0.00 0.00 0.00 0.00
0.00 0.00 0.00 0.02 0.02 0.00 0.00 0.00 0.00 0.01 0.02 0.03 0.02 0.00 0.00 0.01 0.00 0.00 0.00 0.00 0.00 0.00 0.00 0.00 0.00 0.00 0.00 0.00 0.00 0.00 0.00 0.00 0.00 0.00 0.00 0.00 0.00 0.00 0.00 0.00 0.00 0.01 0.00 0.00 0.00 0.00 0.00 0.00 0.00 0.00 0.00 0.00 0.00 0.00
0.00 0.00 0.00 0.01 0.03 0.02 0.00 0.00 0.00 0.00 0.01 0.03 0.02 0.01 0.01 0.01 0.00 0.00 0.00 0.00 0.00 0.00 0.00 0.00 0.00 0.00 0.00 0.00 0.00 0.00 0.00 0.00 0.00 0.00 0.00 0.00 0.00 0.00 0.00 0.00 0.01 0.05 0.02 0.00 0.00 0.00 0.00 0.00 0.00 0.00 0.00 0.00 0.00 0.00
0.01 0.00 0.02 0.01 0.02 0.02 0.01 0.01 0.01 0.00 0.01 0.02 0.01 0.01 0.02 0.00 0.00 0.00 0.00 0.00 0.00 0.00 0.00 0.00 0.00 0.00 0.00 0.00 0.00 0.00 0.00 0.00 0.00 0.00 0.00 0.00 0.00 0.00 0.00 0.00 0.01 0.01 0.00 0.00 0.00 0.00 0.00 0.00 0.00 0.00 0.00 0.00 0.00 0.00
0.02 0.01 0.00 0.00 0.00 0.00 0.01 0.01 0.01 0.01 0.01 0.01 0.01 0.01 0.02 0.01 0.00 0.00 0.00 0.00 0.00 0.00 0.00 0.00 0.00 0.00 0.00 0.00 0.00 0.00 0.00 0.00 0.00 0.00 0.00 0.00 0.00 0.00 0.00 0.00 0.00 0.00 0.00 0.00 0.00 0.00 0.00 0.00 0.00 0.00 0.00 0.00 0.00 0.00
0.05 0.02 0.00 0.01 0.00 0.00 0.00 0.01 0.02 0.03 0.02 0.01 0.01 0.01 0.01 0.00 0.00 0.00 0.01 0.01 0.00 0.00 0.00 0.00 0.00 0.00 0.00 0.00 0.00 0.00 0.00 0.00 0.00 0.00 0.00 0.00 0.00 0.01 0.00 0.00 0.00 0.00 0.00 0.00 0.00 0.00 0.00 0.00 0.00 0.00 0.00 0.00 0.00 0.00
0.04 0.02 0.00 0.01 0.00 0.00 0.00 0.02 0.05 0.05 0.01 0.01 0.00 0.00 0.00 0.00 0.00 0.00 0.00 0.00 0.00 0.00 0.00 0.00 0.00 0.00 0.00 0.00 0.00 0.00 0.00 0.00 0.00 0.00 0.00 0.00 0.00 0.00 0.00 0.00 0.00 0.00 0.00 0.00 0.00 0.00 0.00 0.00 0.00 0.00 0.00 0.00 0.00 0.00
0.03 0.03 0.01 0.01 0.01 0.00 0.01 0.05 0.07 0.03 0.00 0.00 0.00 0.00 0.00 0.01 0.00 0.00 0.00 0.00 0.00 0.00 0.00 0.00 0.00 0.00 0.00 0.00 0.00 0.00 0.00 0.00 0.00 0.00 0.00 0.00 0.00 0.00 0.00 0.00 0.00 0.00 0.00 0.00 0.00 0.00 0.00 0.00 0.00 0.00 0.00 0.00 0.00 0.00
0.03 0.03 0.03 0.01 0.00 0.00 0.01 0.04 0.04 0.00 0.00 0.00 0.00 0.00 0.00 0.00 0.00 0.00 0.00 0.00 0.00 0.00 0.00 0.00 0.00 0.00 0.00 0.01 0.01 0.01 0.01 0.00 0.00 0.01 0.01 0.01 0.00 0.00 0.00 0.00 0.00 0.00 0.00 0.00 0.00 0.00 0.00 0.00 0.00 0.00 0.00 0.00 0.00 0.00
0.03 0.03 0.02 0.00 0.00 0.00 0.00 0.02 0.01 0.00 0.00 0.00 0.00 0.00 0.00 0.00 0.00 0.00 0.00 0.00 0.00 0.00 0.00 0.00 0.00 0.00 0.00 0.01 0.01 0.00 0.00 0.00 0.00 0.01 0.01 0.00 0.00 0.00 0.00 0.00 0.00 0.00 0.00 0.00 0.00 0.00 0.00 0.00 0.00 0.00 0.00 0.00 0.00 0.00
0.03 0.02 0.01 0.00 0.00 0.00 0.01 0.01 0.00 0.00 0.00 0.00 0.00 0.00 0.00 0.00 0.00 0.00 0.00 0.00 0.00 0.00 0.01 0.01 0.00 0.01 0.00 0.00 0.00 0.00 0.00 0.00 0.00 0.01 0.00 0.00 0.00 0.00 0.00 0.00 0.00 0.00 0.00 0.00 0.00 0.00 0.00 0.00 0.00 0.00 0.00 0.00 0.00 0.00
0.02 0.01 0.01 0.01 0.00 0.00 0.01 0.00 0.00 0.01 0.00 0.00 0.00 0.00 0.00 0.00 0.00 0.00 0.00 0.00 0.00 0.01 0.01 0.02 0.00 0.02 0.01 0.00 0.00 0.00 0.00 0.00 0.00 0.00 0.00 0.00 0.00 0.00 0.00 0.00 0.00 0.00 0.00 0.00 0.00 0.00 0.00 0.00 0.00 0.00 0.00 0.00 0.00 0.00
0.02 0.03 0.01 0.00 0.00 0.00 0.00 0.00 0.01 0.00 0.00 0.00 0.00 0.00 0.00 0.00 0.00 0.00 0.00 0.00 0.00 0.00 0.01 0.02 0.01 0.00 0.00 0.00 0.00 0.00 0.00 0.00 0.00 0.00 0.00 0.00 0.00 0.00 0.00 0.00 0.00 0.00 0.00 0.00 0.00 0.00 0.00 0.00 0.00 0.00 0.00 0.00 0.00 0.00
0.01 0.00 0.01 0.01 0.00 0.00 0.01 0.00 0.00 0.00 0.00 0.00 0.00 0.00 0.00 0.00 0.00 0.00 0.00 0.00 0.00 0.01 0.01 0.01 0.01 0.00 0.00 0.01 0.00 0.00 0.00 0.00 0.00 0.00 0.00 0.00 0.00 0.00 0.00 0.00 0.00 0.00 0.00 0.00 0.00 0.00 0.00 0.00 0.00 0.00 0.00 0.00 0.00 0.00
0.00 0.00 0.01 0.01 0.00 0.00 0.00 0.00 0.00 0.00 0.00 0.00 0.00 0.00 0.00 0.00 0.00 0.00 0.00 0.00 0.00 0.00 0.00 0.00 0.00 0.00 0.00 0.00 0.00 0.00 0.00 0.00 0.00 0.00 0.00 0.00 0.00 0.00 0.00 0.00 0.00 0.00 0.00 0.00 0.00 0.00 0.00 0.00 0.00 0.00 0.00 0.00 0.00 0.00
0.00 0.00 0.01 0.00 0.00 0.00 0.00 0.00 0.00 0.00 0.00 0.00 0.00 0.00 0.00 0.00 0.00 0.00 0.00 0.00 0.00 0.00 0.00 0.00 0.00 0.00 0.00 0.00 0.00 0.00 0.00 0.00 0.00 0.00 0.00 0.00 0.00 0.00 0.00 0.00 0.00 0.00 0.00 0.00 0.00 0.00 0.00 0.00 0.00 0.00 0.00 0.00 0.00 0.00
0.00 0.00 0.00 0.00 0.00 0.00 0.00 0.00 0.00 0.00 0.00 0.00 0.00 0.00 0.00 0.00 0.00 0.00 0.00 0.00 0.00 0.00 0.00 0.00 0.00 0.00 0.00 0.00 0.00 0.00 0.00 0.00 0.00 0.00 0.00 0.00 0.00 0.00 0.00 0.00 0.00 0.00 0.00 0.00 0.00 0.00 0.00 0.00 0.00 0.00 0.00 0.00 0.00 0.00
0.00 0.00 0.00 0.00 0.00 0.00 0.00 0.00 0.00 0.00 0.00 0.00 0.00 0.00 0.00 0.00 0.00 0.00 0.00 0.00 0.00 0.00 0.00 0.00 0.00 0.00 0.00 0.00 0.00 0.00 0.00 0.00 0.00 0.00 0.00 0.00 0.00 0.00 0.00 0.00 0.00 0.00 0.00 0.00 0.00 0.00 0.00 0.00 0.00 0.00 0.00 0.00 0.00 0.00
0.00 0.00 0.00 0.00 0.00 0.00 0.00 0.00 0.00 0.00 0.00 0.00 0.00 0.00 0.00 0.00 0.00 0.00 0.00 0.00 0.00 0.00 0.00 0.00 0.00 0.00 0.00 0.00 0.00 0.00 0.00 0.00 0.00 0.00 0.00 0.00 0.00 0.00 0.00 0.00 0.00 0.00 0.00 0.00 0.00 0.00 0.00 0.00 0.00 0.00 0.00 0.00 0.00 0.00
0.00 0.00 0.00 0.00 0.00 0.00 0.00 0.00 0.00 0.00 0.00 0.00 0.00 0.00 0.00 0.00 0.00 0.00 0.00 0.00 0.00 0.00 0.00 0.00 0.00 0.00 0.00 0.00 0.00 0.00 0.00 0.00 0.00 0.00 0.00 0.00 0.00 0.00 0.00 0.00 0.00 0.00 0.00 0.00 0.00 0.00 0.00 0.00 0.00 0.00 0.00 0.00 0.00 0.00
0.00 0.00 0.00 0.00 0.00 0.00 0.00 0.00 0.00 0.00 0.00 0.00 0.00 0.00 0.00 0.00 0.00 0.00 0.00 0.00 0.00 0.00 0.00 0.00 0.00 0.00 0.00 0.00 0.00 0.00 0.00 0.00 0.00 0.00 0.00 0.00 0.00 0.00 0.00 0.00 0.00 0.00 0.00 0.00 0.00 0.00 0.00 0.00 0.00 0.00 0.00 0.00 0.00 0.00
0.00 0.00 0.00 0.00 0.00 0.00 0.00 0.00 0.00 0.00 0.00 0.00 0.00 0.00 0.00 0.00 0.00 0.00 0.00 0.00 0.00 0.00 0.00 0.00 0.00 0.00 0.00 0.00 0.00 0.00 0.00 0.00 0.00 0.00 0.00 0.00 0.00 0.00 0.00 0.00 0.00 0.00 0.00 0.00 0.00 0.00 0.00 0.00 0.00 0.00 0.00 0.00 0.00 0.00
0.00 0.00 0.00 0.00 0.00 0.00 0.00 0.00 0.00 0.00 0.00 0.00 0.00 0.00 0.00 0.00 0.00 0.00 0.00 0.00 0.00 0.00 0.00 0.00 0.00 0.00 0.00 0.00 0.00 0.00 0.00 0.00 0.00 0.00 0.00 0.00 0.00 0.00 0.00 0.00 0.00 0.00 0.00 0.00 0.00 0.00 0.00 0.00 0.00 0.00 0.00 0.00 0.00 0.00
0.00 0.00 0.00 0.00 0.00 0.00 0.00 0.00 0.00 0.00 0.00 0.00 0.00 0.00 0.00 0.00 0.00 0.00 0.00 0.00 0.00 0.00 0.00 0.00 0.00 0.00 0.00 0.00 0.00 0.00 0.00 0.00 0.00 0.00 0.00 0.00 0.00 0.00 0.00 0.00 0.00 0.00 0.00 0.00 0.00 0.00 0.00 0.00 0.00 0.00 0.00 0.00 0.00 0.00
0.00 0.00 0.00 0.00 0.00 0.00 0.00 0.00 0.00 0.00 0.00 0.00 0.00 0.00 0.00 0.00 0.00 0.00 0.00 0.00 0.00 0.00 0.00 0.00 0.00 0.00 0.00 0.00 0.00 0.00 0.00 0.00 0.00 0.00 0.00 0.00 0.00 0.00 0.00 0.00 0.00 0.00 0.00 0.00 0.00 0.00 0.00 0.00 0.00 0.00 0.00 0.00 0.00 0.00
0.00 0.00 0.00 0.00 0.00 0.00 0.00 0.00 0.00 0.00 0.00 0.00 0.00 0.00 0.00 0.00 0.00 0.00 0.00 0.00 0.00 0.00 0.00 0.00 0.00 0.00 0.00 0.00 0.00 0.00 0.00 0.00 0.00 0.00 0.00 0.00 0.00 0.00 0.00 0.00 0.00 0.00 0.00 0.00 0.00 0.00 0.00 0.00 0.00 0.00 0.00 0.00 0.00 0.00
0.00 0.00 0.00 0.00 0.00 0.00 0.00 0.00 0.00 0.00 0.00 0.00 0.00 0.00 0.00 0.00 0.00 0.00 0.00 0.00 0.00 0.00 0.00 0.00 0.00 0.00 0.00 0.00 0.00 0.00 0.00 0.00 0.00 0.00 0.00 0.00 0.00 0.00 0.00 0.00 0.00 0.00 0.00 0.00 0.00 0.00 0.00 0.00 0.00 0.00 0.00 0.00 0.00 0.00
0.00 0.00 0.00 0.00 0.00 0.00 0.00 0.00 0.00 0.00 0.00 0.00 0.00 0.00 0.00 0.00 0.00 0.00 0.00 0.00 0.00 0.00 0.00 0.00 0.00 0.00 0.00 0.00 0.00 0.00 0.00 0.00 0.00 0.00 0.00 0.00 0.00 0.00 0.00 0.00 0.00 0.00 0.00 0.00 0.00 0.00 0.00 0.00 0.00 0.00 0.00 0.00 0.00 0.00
0.00 0.00 0.00 0.00 0.00 0.00 0.00 0.00 0.00 0.00 0.00 0.00 0.00 0.00 0.00 0.00 0.00 0.00 0.00 0.00 0.00 0.00 0.00 0.00 0.00 0.00 0.00 0.00 0.00 0.00 0.00 0.00 0.00 0.00 0.00 0.00 0.00 0.00 0.00 0.00 0.00 0.00 0.00 0.00 0.00 0.00 0.00 0.00 0.00 0.00 0.00 0.00 0.00 0.00
0.00 0.00 0.00 0.00 0.00 0.00 0.00 0.00 0.00 0.00 0.00 0.00 0.00 0.00 0.00 0.00 0.00 0.00 0.00 0.00 0.00 0.00 0.00 0.00 0.00 0.00 0.00 0.00 0.00 0.00 0.00 0.00 0.00 0.00 0.00 0.00 0.00 0.00 0.00 0.00 0.00 0.00 0.00 0.00 0.00 0.00 0.00 0.00 0.00 0.00 0.00 0.00 0.00 0.00
MSLP
1006.98 1007.08 1007.19 1007.42 1007.62 1007.92 1008.54 1009.26 1010.05 1010.72 1011.44 1012.11 1012.85 1013.49 1014.09 1014.59 1014.96 1015.55 1016.49 1016.18 1016.61 1017.77 1017.93 1017.64 1017.55 1017.67 1017.61 1017.82 1018.56 1018.81 1019.00 1019.35 1019.95 1020.77 1021.26 1021.14 1020.79 1019.91 1019.61 1019.36 1019.16 1019.41 1019.65 1019.77 1019.67 1019.63 1019.91 1019.53 1018.35 1018.79 1020.07 1019.51 1019.22 1018.50
1007.03 1007.30 1007.47 1007.73 1007.95 1008.34 1008.62 1009.18 1009.87 1010.58 1011.39 1012.06 1012.89 1013.59 1014.20 1014.81 1015.17 1015.71 1016.75 1016.65 1016.73 1017.83 1018.27 1017.85 1017.61 1017.50 1017.59 1017.84 1018.31 1018.84 1019.45 1019.57 1020.02 1020.93 1021.57 1021.47 1021.34 1020.92 1020.58 1020.32 1019.70 1019.79 1019.74 1020.13 1020.44 1020.32 1020.26 1020.46 1020.44 1020.45 1020.32 1020.02 1019.64 1019.16
1007.13 1007.38 1007.66 1007.93 1008.23 1008.41 1008.88 1009.08 1009.78 1010.56 1011.29 1012.22 1012.96 1013.66 1014.33 1014.91 1015.43 1015.95 1016.89 1017.10 1017.43 1018.39 1018.39 1017.98 1017.40 1017.02 1017.34 1017.60 1017.75 1018.77 1019.46 1019.45 1020.02 1020.28 1021.37 1021.77 1021.84 1021.58 1021.13 1020.63 1020.30 1019.88 1019.64 1020.04 1020.56 1020.44 1020.27 1020.63 1020.58 1020.64 1020.46 1020.36 1020.16 1019.72
1007.18 1007.51 1007.83 1008.11 1008.41 1008.75 1009.04 1009.37 1009.62 1010.36 1011.24 1012.11 1012.91 1013.58 1014.31 1015.04 1015.60 1016.31 1017.05 1017.34 1017.73 1018.66 1018.93 1018.30 1017.13 1016.87 1016.69 1017.22 1017.72 1018.26 1018.99 1019.31 1019.87 1020.43 1021.22 1021.78 1022.01 1021.18 1020.96 1020.67 1020.59 1020.08 1020.03 1020.15 1020.06 1020.05 1020.42 1020.75 1020.70 1020.84 1020.60 1020.51 1020.34 1020.11
1007.11 1007.46 1007.83 1008.07 1008.46 1008.84 1009.33 1009.76 1010.02 1010.37 1011.07 1011.91 1012.84 1013.65 1014.44 1015.17 1015.94 1016.72 1017.31 1017.61 1017.76 1018.64 1018.93 1018.61 1017.58 1016.72 1016.57 1017.11 1017.67 1018.16 1018.96 1019.65 1020.44 1021.10 1021.62 1021.84 1021.27 1021.06 1020.76 1020.63 1020.10 1019.43 1019.54 1020.02 1020.16 1020.08 1020.40 1020.56 1020.99 1021.06 1020.81 1020.71 1020.52 1020.52
1006.91 1007.40 1007.81 1008.18 1008.49 1008.91 1009.49 1009.91 1010.33 1010.69 1011.32 1011.87 1012.84 1013.65 1014.53 1015.26 1016.16 1016.98 1018.02 1017.82 1017.86 1018.32 1019.02 1019.16 1018.07 1017.06 1016.81 1017.12 1017.82 1018.53 1019.04 1019.74 1020.37 1021.00 1021.34 1021.11 1020.38 1020.63 1020.84 1020.44 1019.29 1019.34 1019.41 1019.53 1019.89 1020.07 1020.48 1020.72 1021.01 1021.08 1021.06 1020.91 1021.05 1021.11
1006.73 1007.26 1007.78 1008.16 1008.60 1009.03 1009.51 1009.91 1010.19 1010.69 1011.05 1011.98 1012.95 1013.81 1014.73 1015.54 1016.41 1017.06 1017.49 1017.52 1017.43 1018.27 1019.11 1019.41 1018.70 1017.60 1017.03 1017.49 1018.27 1018.93 1019.19 1019.79 1020.30 1020.89 1021.10 1020.87 1020.42 1020.34 1020.32 1019.92 1019.07 1019.28 1019.40 1019.64 1019.81 1020.27 1020.70 1021.01 1021.32 1021.43 1021.56 1021.69 1021.58 1021.66
1006.55 1007.15 1007.74 1008.20 1008.66 1009.06 1009.55 1009.91 1010.30 1010.73 1011.24 1012.03 1013.09 1014.09 1015.16 1015.93 1016.62 1017.11 1017.06 1016.85 1017.42 1018.46 1019.21 1019.75 1019.37 1018.35 1017.48 1018.40 1019.14 1019.27 1019.87 1020.16 1020.43 1020.61 1020.60 1020.53 1020.19 1020.10 1019.80 1018.89 1018.59 1019.13 1019.37 1019.82 1020.05 1020.41 1020.78 1021.28 1021.55 1022.01 1022.18 1022.09 1022.12 1022.45
1006.36 1007.04 1007.70 1008.26 1008.74 1009.21 1009.63 1010.00 1010.47 1010.94 1011.09 1012.09 1013.39 1014.73 1016.12 1016.93 1017.55 1017.60 1017.29 1017.30 1017.78 1018.95 1019.64 1020.00 1019.74 1019.10 1018.42 1018.93 1019.42 1019.83 1020.04 1020.55 1020.32 1020.43 1020.10 1020.11 1019.89 1019.74 1018.90 1019.05 1019.37 1019.60 1020.10 1020.64 1021.03 1021.37 1021.76 1022.10 1022.57 1022.95 1023.01 1022.99 1023.16 1023.40
1006.26 1007.01 1007.76 1008.39 1008.86 1009.39 1009.83 1010.21 1010.63 1011.16 1012.27 1012.99 1014.26 1015.79 1016.98 1017.22 1017.27 1017.30 1017.71 1018.20 1018.72 1019.11 1019.41 1019.83 1019.40 1019.19 1018.85 1019.18 1019.84 1020.47 1020.44 1020.51 1020.30 1019.38 1019.17 1019.40 1019.52 1019.94 1020.17 1020.14 1020.33 1020.76 1021.01 1021.25 1021.75 1022.40 1022.79 1023.16 1023.47 1023.73 1023.88 1024.13 1024.14 1024.17
1006.17 1006.99 1007.77 1008.47 1009.06 1009.57 1010.01 1010.28 1010.34 1011.63 1012.85 1013.61 1014.55 1015.61 1016.41 1016.64 1017.42 1018.38 1019.06 1019.40 1019.79 1019.76 1019.23 1018.95 1018.68 1018.77 1018.68 1018.81 1019.42 1019.96 1020.21 1020.16 1019.80 1018.68 1018.84 1019.04 1019.63 1020.39 1021.11 1021.52 1021.73 1022.00 1022.21 1022.70 1023.20 1023.73 1024.05 1024.27 1024.41 1024.47 1024.73 1025.07 1025.12 1025.14
1006.05 1006.96 1007.79 1008.47 1009.09 1009.70 1010.24 1010.72 1011.14 1011.57 1012.53 1012.84 1013.54 1015.36 1016.68 1017.15 1018.24 1019.01 1019.42 1019.69 1019.51 1018.94 1018.27 1018.08 1017.97 1017.88 1018.11 1018.15 1018.89 1019.46 1019.55 1019.57 1018.93 1018.41 1018.91 1019.48 1020.75 1021.43 1022.06 1022.71 1023.17 1023.37 1023.58 1023.97 1024.30 1024.63 1024.98 1025.15 1025.26 1025.44 1025.67 1025.72 1025.76 1025.72
1006.13 1007.02 1007.83 1008.52 1009.15 1009.79 1010.37 1010.67 1011.40 1011.72 1011.79 1012.55 1013.83 1015.93 1016.78 1018.13 1018.72 1018.85 1019.00 1018.85 1018.40 1017.56 1017.14 1017.17 1017.81 1017.49 1017.73 1017.84 1018.02 1018.70 1019.02 1019.14 1018.51 1018.98 1019.71 1020.67 1021.41 1022.37 1022.97 1023.57 1024.08 1024.45 1024.74 1025.03 1025.38 1025.60 1025.84 1026.12 1026.25 1026.30 1026.33 1026.26 1026.22 1026.19
1006.30 1007.20 1008.00 1008.67 1009.40 1010.12 1010.61 1011.42 1011.74 1011.62 1011.95 1012.97 1014.89 1016.65 1017.31 1017.90 1017.74 1017.42 1017.30 1017.13 1016.74 1016.39 1016.26 1016.47 1017.17 1017.00 1017.15 1017.73 1017.88 1018.40 1018.62 1018.92 1019.25 1019.64 1020.44 1021.34 1022.04 1022.91 1023.66 1024.25 1024.72 1025.26 1025.71 1026.11 1026.41 1026.66 1026.92 1027.09 1027.19 1027.21 1027.21 1027.04 1027.03 1027.05
1006.67 1007.56 1008.36 1009.10 1009.76 1010.46 1011.07 1011.72 1011.91 1012.30 1012.32 1013.66 1015.04 1016.54 1017.17 1016.60 1016.55 1016.51 1016.46 1016.47 1016.07 1015.67 1015.80 1016.60 1016.86 1016.97 1017.37 1017.68 1017.93 1018.19 1018.78 1019.28 1019.75 1020.60 1021.43 1022.08 1022.87 1023.55 1024.21 1024.78 1025.37 1025.96 1026.50 1026.92 1027.27 1027.47 1027.65 1027.82 1027.96 1028.05 1027.87 1027.83 1027.86 1027.84
1007.32 1008.34 1008.96 1009.41 1010.04 1010.67 1011.14 1011.66 1012.49 1012.62 1013.45 1014.50 1015.79 1016.49 1016.50 1016.66 1016.78 1016.58 1016.53 1016.48 1016.14 1015.61 1015.96 1016.65 1016.87 1017.20 1017.53 1017.64 1018.04 1018.39 1019.16 1019.73 1020.56 1021.38 1022.18 1022.95 1023.73 1024.38 1024.92 1025.37 1025.91 1026.46 1027.01 1027.46 1027.85 1028.08 1028.25 1028.39 1028.45 1028.38 1028.31 1028.30 1028.28 1028.24
1007.82 1008.46 1009.02 1009.65 1010.60 1011.13 1011.90 1012.58 1012.90 1013.26 1014.44 1015.63 1016.62 1016.68 1017.00 1017.24 1017.34 1017.19 1016.76 1016.74 1016.41 1016.29 1016.38 1016.54 1016.77 1017.07 1017.53 1017.93 1018.65 1019.21 1019.97 1020.72 1021.42 1022.46 1023.26 1023.81 1024.47 1025.11 1025.59 1026.00 1026.49 1027.00 1027.49 1027.88 1028.16 1028.39 1028.50 1028.19 1028.43 1028.65 1028.83 1028.52 1028.37 1028.47
1008.21 1008.65 1009.36 1010.02 1011.15 1011.92 1012.12 1012.11 1012.50 1013.70 1015.18 1016.20 1017.01 1017.65 1017.88 1017.96 1017.92 1017.61 1017.18 1016.77 1016.54 1016.17 1016.21 1016.69 1017.06 1017.70 1018.50 1019.07 1019.77 1020.17 1021.00 1021.97 1022.62 1023.34 1024.19 1024.80 1025.09 1025.53 1025.90 1026.38 1026.90 1027.35 1027.76 1028.05 1028.22 1028.39 1028.53 1028.57 1028.74 1028.77 1028.50 1028.32 1028.55 1028.58
1008.70 1009.41 1010.22 1010.91 1010.89 1011.27 1011.68 1012.58 1013.07 1014.78 1016.22 1016.94 1017.52 1017.68 1017.99 1018.27 1018.15 1017.95 1017.72 1017.16 1017.02 1016.96 1017.11 1017.51 1018.32 1019.20 1019.84 1019.97 1020.37 1020.97 1021.64 1022.44 1023.40 1024.31 1025.01 1025.18 1025.51 1025.96 1026.41 1026.80 1027.23 1027.58 1027.90 1028.05 1028.21 1028.55 1028.78 1028.71 1028.87 1028.74 1028.65 1028.78 1029.20 1028.94
1009.40 1010.33 1010.70 1010.82 1010.81 1011.22 1012.70 1013.68 1013.81 1015.11 1016.36 1017.06 1017.46 1017.99 1018.38 1018.61 1018.29 1018.17 1018.01 1017.81 1017.79 1017.96 1018.76 1019.53 1020.20 1020.52 1020.52 1020.50 1020.52 1020.86 1021.58 1022.37 1023.30 1024.55 1025.47 1025.84 1026.04 1026.44 1026.86 1027.14 1027.56 1027.79 1027.97 1028.08 1028.27 1028.36 1028.70 1029.03 1028.96 1028.96 1029.06 1029.17 1029.45 1029.70
1010.33 1010.57 1010.30 1010.14 1011.15 1012.14 1013.43 1014.26 1015.08 1015.58 1016.08 1016.66 1017.29 1017.68 1018.34 1018.34 1018.59 1018.58 1018.46 1018.46 1018.95 1019.71 1020.55 1020.98 1021.38 1021.43 1021.17 1021.06 1021.00 1021.23 1021.98 1022.49 1023.21 1023.89 1024.82 1025.89 1026.35 1026.77 1027.20 1027.35 1027.28 1027.50 1028.03 1028.57 1028.86 1029.21 1029.37 1029.49 1029.21 1029.27 1029.40 1029.51 1029.65 1029.76
1010.39 1010.24 1011.07 1011.46 1012.43 1013.22 1013.92 1014.34 1014.92 1015.73 1016.34 1016.84 1017.33 1017.71 1018.28 1018.54 1018.80 1018.66 1018.66 1019.46 1020.22 1020.74 1020.99 1021.66 1022.03 1022.13 1022.22 1022.30 1022.26 1022.24 1022.46 1022.79 1023.33 1024.01 1024.75 1025.56 1026.60 1027.11 1027.40 1027.52 1027.72 1028.10 1028.38 1028.72 1028.95 1029.45 1029.55 1029.39 1029.43 1029.54 1029.64 1029.74 1029.54 1029.74
1010.66 1011.14 1012.05 1012.70 1013.44 1014.17 1015.16 1014.70 1015.33 1015.88 1016.48 1017.05 1017.23 1017.68 1018.21 1018.39 1018.54 1018.49 1019.36 1020.10 1020.74 1020.71 1020.83 1021.40 1021.87 1022.15 1022.47 1022.89 1022.88 1023.09 1023.10 1023.29 1024.04 1024.63 1025.18 1025.86 1026.51 1027.06 1027.49 1027.69 1027.83 1028.35 1028.73 1028.89 1028.84 1029.12 1029.36 1029.53 1029.71 1029.77 1029.82 1029.73 1029.80 1030.08
1011.96 1013.10 1013.79 1014.21 1014.64 1015.57 1015.51 1015.47 1015.54 1016.00 1016.53 1017.02 1017.39 1017.76 1018.17 1018.53 1018.86 1019.29 1020.05 1020.48 1020.72 1020.98 1021.34 1021.81 1022.12 1022.76 1023.07 1023.36 1023.83 1024.06 1024.20 1024.10 1024.72 1025.45 1025.60 1026.20 1027.09 1027.71 1027.64 1028.08 1028.28 1028.51 1028.65 1028.72 1029.03 1029.30 1029.56 1029.74 1029.83 1029.93 1029.96 1030.03 1030.16 1030.21
1013.42 1015.04 1015.27 1015.51 1015.46 1015.89 1016.02 1016.02 1016.08 1016.35 1016.75 1017.09 1017.56 1018.13 1018.58 1018.84 1019.58 1019.86 1019.86 1020.29 1020.75 1021.28 1021.72 1021.89 1022.19 1022.50 1023.08 1023.81 1024.30 1024.53 1024.36 1024.51 1025.15 1025.92 1026.30 1026.35 1027.27 1027.97 1028.49 1028.70 1028.90 1029.13 1028.89 1029.19 1029.64 1029.74 1029.86 1029.95 1030.02 1030.10 1030.18 1030.26 1030.43 1030.54
1015.01 1015.90 1016.07 1015.88 1016.11 1016.09 1016.26 1016.53 1016.52 1016.67 1017.03 1017.49 1018.04 1018.53 1018.89 1019.66 1019.85 1019.65 1019.29 1019.62 1020.31 1020.86 1021.05 1021.39 1021.80 1022.55 1023.20 1023.54 1024.30 1024.47 1024.80 1024.86 1025.26 1026.13 1026.89 1026.73 1027.05 1027.61 1028.40 1028.97 1029.38 1029.89 1029.44 1029.47 1029.99 1030.25 1030.24 1030.22 1030.19 1030.25 1030.34 1030.37 1030.50 1030.70
1016.12 1016.50 1016.42 1016.26 1016.36 1016.43 1017.04 1016.95 1016.82 1017.34 1017.60 1017.92 1018.51 1019.51 1019.75 1020.18 1019.87 1019.21 1019.12 1019.40 1019.76 1019.88 1020.21 1020.75 1021.25 1021.91 1022.78 1023.62 1024.13 1024.39 1024.61 1024.91 1025.51 1026.22 1026.90 1027.12 1027.26 1027.39 1027.82 1028.63 1029.14 1029.61 1029.62 1029.79 1029.85 1030.21 1030.39 1030.36 1030.26 1030.18 1030.20 1030.46 1030.74 1030.94
1016.49 1016.85 1017.38 1017.58 1017.62 1017.56 1018.34 1018.51 1018.32 1018.19 1018.26 1017.98 1018.74 1019.96 1020.28 1019.88 1019.69 1019.36 1019.13 1019.12 1019.12 1019.54 1020.16 1020.62 1021.10 1021.67 1022.57 1023.45 1024.06 1024.57 1025.24 1025.75 1026.38 1026.96 1027.47 1027.99 1028.22 1028.28 1028.49 1028.92 1029.16 1028.92 1029.60 1030.09 1030.21 1029.93 1029.81 1030.08 1030.36 1030.47 1030.67 1030.91 1031.20 1030.90
1017.16 1017.59 1017.96 1018.89 1019.05 1019.15 1019.07 1019.30 1019.07 1018.95 1018.87 1018.78 1019.49 1019.71 1019.94 1019.92 1019.95 1019.59 1019.39 1019.25 1019.37 1019.87 1020.74 1021.40 1022.09 1022.45 1023.25 1024.03 1024.47 1024.74 1025.31 1025.92 1026.69 1027.64 1028.13 1028.98 1029.31 1029.52 1029.27 1029.52 1029.88 1030.19 1029.93 1030.07 1029.28 1029.86 1029.65 1029.54 1029.74 1030.55 1030.84 1031.05 1031.26 1031.46
1018.25 1018.11 1019.29 1019.84 1020.56 1020.50 1020.11 1019.97 1020.01 1019.90 1019.70 1019.54 1019.71 1020.16 1020.34 1020.33 1020.02 1019.55 1019.52 1019.59 1019.91 1020.34 1020.79 1021.34 1022.07 1022.71 1023.68 1024.49 1025.51 1026.10 1026.19 1026.13 1026.48 1027.02 1027.91 1028.57 1028.86 1028.99 1029.37 1029.79 1030.18 1030.48 1030.63 1030.38 1030.02 1029.78 1029.62 1029.91 1029.79 1030.62 1031.61 1031.82 1032.17 1032.56
1018.60 1018.96 1019.72 1020.38 1020.81 1020.86 1020.83 1020.71 1020.48 1020.47 1020.64 1020.35 1020.34 1020.73 1021.10 1021.01 1020.29 1019.73 1019.64 1019.65 1019.92 1020.47 1021.06 1021.88 1022.58 1022.89 1023.58 1024.31 1024.95 1025.72 1026.54 1026.59 1026.54 1026.55 1026.81 1027.27 1028.17 1028.89 1029.45 1029.96 1030.20 1030.15 1030.76 1030.65 1030.50 1030.54 1030.75 1031.09 1031.63 1031.96 1032.59 1033.01 1033.37 1033.52
1019.48 1019.90 1020.33 1021.13 1021.36 1021.36 1021.38 1021.82 1021.83 1021.60 1021.62 1021.31 1021.19 1021.16 1021.40 1021.50 1021.19 1020.30 1019.17 1019.36 1019.83 1020.43 1020.93 1021.43 1022.18 1022.94 1023.36 1023.78 1024.48 1025.03 1025.30 1026.25 1026.74 1026.92 1027.13 1027.71 1028.45 1029.21 1029.38 1029.64 1029.99 1030.18 1030.83 1030.87 1030.94 1031.16 1031.45 1032.23 1032.57 1032.85 1033.23 1033.55 1033.79 1033.96
1019.96 1020.10 1020.53 1021.35 1021.74 1021.96 1022.06 1022.31 1022.23 1022.05 1021.75 1021.88 1021.35 1021.15 1021.19 1021.02 1020.44 1019.41 1018.89 1018.71 1019.04 1019.77 1020.66 1021.44 1022.01 1022.66 1023.36 1023.96 1024.68 1025.34 1025.89 1026.59 1027.03 1026.94 1027.52 1028.00 1028.60 1029.07 1029.51 1029.84 1030.19 1030.27 1030.79 1031.13 1031.41 1031.67 1032.21 1032.88 1033.24 1033.51 1033.78 1034.01 1034.22 1034.36
Thickness
5325 5333 5339 5345 5350 5354 5355 5355 5354 5354 5354 5354 5353 5354 5355 5358 5362 5363 5362 5371 5373 5365 5372 5382 5387 5383 5388 5387 5386 5390 5389 5390 5381 5375 5378 5370 5383 5398 5393 5401 5399 5384 5389 5368 5383 5390 5386 5386 5406 5399 5385 5388 5392 5395
5315 5323 5330 5336 5342 5345 5350 5352 5353 5353 5352 5354 5352 5353 5353 5353 5357 5361 5358 5364 5369 5364 5367 5376 5382 5385 5389 5391 5382 5381 5383 5389 5386 5375 5374 5377 5378 5361 5381 5369 5384 5364 5372 5367 5370 5374 5379 5378 5378 5380 5379 5381 5384 5389
5303 5312 5319 5327 5333 5340 5343 5349 5350 5350 5350 5348 5349 5349 5349 5350 5352 5355 5353 5358 5359 5353 5358 5367 5376 5387 5387 5388 5389 5375 5375 5384 5378 5373 5356 5356 5356 5351 5351 5357 5357 5378 5387 5365 5369 5371 5373 5368 5374 5374 5377 5376 5377 5381
5292 5299 5307 5315 5322 5329 5335 5340 5345 5347 5347 5346 5345 5346 5346 5345 5348 5349 5349 5353 5354 5348 5337 5358 5377 5384 5388 5385 5385 5382 5378 5377 5373 5367 5351 5343 5349 5361 5347 5360 5346 5352 5360 5355 5369 5372 5366 5362 5365 5364 5372 5372 5375 5375
5282 5289 5296 5305 5312 5319 5324 5329 5336 5342 5344 5343 5342 5341 5340 5341 5340 5342 5344 5347 5351 5346 5345 5353 5367 5379 5382 5380 5379 5379 5372 5366 5358 5350 5339 5341 5349 5351 5349 5346 5331 5355 5351 5344 5349 5363 5358 5363 5357 5358 5364 5366 5368 5370
5273 5278 5285 5293 5301 5309 5314 5321 5328 5334 5337 5339 5335 5335 5335 5337 5336 5335 5326 5341 5345 5345 5339 5333 5358 5374 5379 5376 5372 5368 5364 5357 5350 5347 5337 5344 5352 5342 5323 5337 5355 5351 5354 5351 5353 5360 5359 5357 5352 5353 5354 5359 5358 5358
5263 5269 5274 5282 5290 5298 5305 5313 5321 5327 5333 5331 5329 5329 5328 5329 5329 5328 5327 5337 5343 5342 5329 5331 5345 5362 5373 5369 5362 5357 5356 5352 5348 5342 5336 5338 5341 5341 5322 5336 5354 5349 5349 5349 5349 5351 5346 5340 5338 5343 5345 5345 5348 5349
5256 5259 5266 5272 5280 5289 5296 5305 5313 5320 5325 5326 5324 5322 5320 5321 5322 5323 5330 5336 5337 5333 5330 5318 5334 5350 5364 5346 5348 5348 5346 5345 5345 5338 5332 5335 5337 5334 5336 5351 5355 5351 5351 5350 5352 5353 5346 5337 5338 5334 5334 5337 5337 5334
5252 5254 5256 5263 5271 5279 5288 5297 5304 5312 5320 5320 5316 5310 5309 5308 5309 5314 5322 5327 5329 5324 5314 5311 5320 5324 5349 5342 5341 5338 5338 5331 5336 5327 5333 5334 5338 5340 5353 5353 5346 5349 5342 5337 5335 5336 5332 5330 5327 5323 5320 5322 5322 5322
5249 5250 5252 5255 5263 5272 5281 5290 5301 5307 5306 5309 5306 5300 5297 5302 5308 5313 5311 5306 5305 5309 5317 5315 5325 5320 5345 5333 5319 5330 5321 5322 5325 5339 5343 5340 5346 5334 5334 5332 5331 5327 5328 5330 5330 5324 5321 5318 5315 5312 5310 5309 5311 5311
5247 5247 5249 5251 5257 5266 5275 5287 5296 5297 5298 5299 5299 5301 5300 5303 5303 5299 5300 5289 5289 5313 5318 5322 5328 5329 5337 5341 5320 5320 5324 5328 5340 5350 5353 5355 5347 5332 5321 5318 5318 5314 5313 5309 5308 5305 5305 5304 5304 5305 5302 5298 5298 5298
5246 5246 5246 5251 5255 5262 5271 5277 5287 5295 5299 5304 5309 5302 5296 5297 5289 5282 5294 5293 5306 5319 5322 5319 5324 5332 5332 5341 5330 5328 5334 5332 5345 5352 5353 5346 5324 5316 5311 5304 5301 5301 5300 5297 5297 5296 5295 5294 5294 5293 5291 5291 5288 5287
5245 5245 5245 5248 5253 5259 5266 5279 5285 5294 5303 5305 5302 5290 5289 5280 5289 5299 5294 5309 5295 5316 5322 5322 5319 5328 5332 5341 5342 5324 5322 5328 5342 5341 5328 5319 5316 5306 5301 5296 5293 5291 5289 5288 5286 5287 5285 5282 5281 5282 5281 5282 5283 5282
5245 5244 5243 5245 5250 5257 5265 5273 5282 5294 5300 5299 5291 5288 5274 5280 5291 5304 5310 5312 5317 5316 5324 5330 5323 5331 5331 5334 5334 5336 5331 5324 5317 5352 5335 5312 5309 5303 5296 5292 5288 5284 5281 5278 5275 5275 5273 5272 5269 5269 5267 5270 5271 5272
5244 5242 5242 5244 5249 5256 5265 5274 5283 5289 5298 5294 5290 5270 5286 5294 5300 5310 5311 5307 5319 5321 5333 5331 5329 5333 5330 5329 5345 5352 5344 5345 5339 5334 5300 5306 5304 5299 5292 5288 5282 5278 5270 5268 5262 5260 5257 5257 5257 5254 5255 5256 5257 5254
5241 5238 5241 5247 5252 5260 5270 5280 5280 5290 5291 5291 5290 5291 5290 5303 5309 5316 5308 5317 5318 5329 5327 5327 5329 5331 5324 5325 5345 5349 5341 5344 5329 5309 5306 5301 5294 5289 5283 5278 5273 5267 5263 5255 5251 5249 5246 5244 5244 5245 5243 5243 5242 5242
5244 5246 5248 5253 5258 5268 5274 5275 5281 5292 5289 5291 5289 5280 5288 5297 5303 5297 5308 5311 5309 5326 5332 5328 5334 5330 5328 5326 5337 5325 5311 5308 5307 5300 5288 5288 5284 5275 5269 5267 5262 5259 5250 5245 5242 5240 5239 5238 5234 5234 5232 5232 5231 5231
5252 5259 5262 5265 5266 5270 5277 5286 5289 5289 5286 5280 5283 5274 5276 5279 5286 5287 5303 5308 5317 5323 5327 5333 5330 5338 5307 5333 5323 5310 5302 5293 5289 5287 5278 5272 5272 5269 5268 5262 5256 5249 5241 5237 5236 5231 5227 5229 5229 5228 5225 5225 5221 5220
5264 5266 5268 5272 5280 5284 5286 5289 5295 5286 5273 5273 5272 5273 5278 5274 5277 5284 5296 5305 5309 5313 5316 5321 5321 5306 5303 5300 5300 5296 5292 5285 5286 5272 5265 5264 5265 5261 5254 5249 5244 5237 5232 5228 5227 5221 5215 5214 5212 5210 5210 5211 5204 5205
5272 5271 5277 5283 5289 5294 5292 5287 5293 5288 5282 5283 5279 5278 5279 5274 5284 5294 5295 5298 5307 5311 5301 5296 5285 5290 5291 5298 5293 5299 5291 5288 5282 5272 5260 5257 5256 5251 5244 5240 5230 5224 5222 5218 5212 5214 5209 5203 5199 5198 5195 5192 5187 5183
5279 5284 5292 5299 5296 5295 5290 5286 5285 5286 5286 5288 5284 5288 5276 5284 5284 5287 5297 5298 5292 5283 5279 5272 5271 5285 5280 5286 5289 5296 5289 5286 5281 5273 5264 5252 5244 5243 5233 5228 5226 5223 5214 5209 5202 5194 5190 5187 5185 5184 5178 5173 5170 5167
5288 5296 5295 5298 5294 5294 5293 5293 5292 5288 5289 5288 5287 5290 5277 5278 5281 5280 5292 5283 5269 5274 5276 5272 5271 5274 5279 5279 5281 5282 5278 5276 5272 5269 5259 5254 5243 5236 5231 5227 5219 5204 5199 5195 5194 5186 5181 5179 5178 5172 5163 5158 5154 5148
5300 5301 5296 5297 5294 5291 5287 5294 5292 5292 5283 5280 5291 5292 5284 5286 5288 5295 5271 5280 5272 5277 5276 5279 5270 5272 5274 5268 5274 5273 5271 5273 5267 5260 5254 5248 5240 5230 5224 5217 5214 5205 5193 5189 5188 5181 5175 5171 5163 5154 5147 5141 5136 5129
5299 5293 5295 5297 5293 5282 5289 5291 5300 5299 5293 5290 5296 5300 5298 5293 5289 5280 5286 5267 5273 5279 5277 5275 5277 5271 5270 5272 5267 5261 5259 5261 5255 5247 5245 5241 5231 5218 5218 5211 5204 5197 5193 5187 5181 5173 5166 5157 5149 5142 5128 5123 5114 5110
5295 5285 5284 5284 5289 5286 5295 5295 5295 5300 5296 5299 5300 5295 5284 5285 5270 5270 5287 5278 5286 5275 5276 5276 5275 5275 5269 5256 5250 5253 5254 5257 5250 5244 5234 5231 5219 5212 5205 5200 5194 5189 5185 5180 5167 5162 5157 5145 5134 5124 5116 5107 5105 5100
5287 5276 5288 5284 5284 5294 5300 5297 5301 5298 5294 5297 5296 5287 5276 5270 5289 5288 5298 5283 5278 5277 5278 5279 5277 5269 5266 5264 5255 5252 5250 5249 5245 5233 5225 5224 5220 5213 5200 5191 5180 5177 5176 5169 5159 5149 5142 5136 5128 5118 5106 5103 5098 5090
5275 5273 5287 5297 5298 5303 5286 5292 5302 5288 5290 5300 5283 5271 5268 5282 5274 5287 5290 5286 5286 5282 5284 5280 5278 5274 5267 5257 5253 5249 5248 5244 5238 5230 5222 5217 5213 5208 5202 5191 5176 5172 5169 5162 5154 5145 5134 5125 5117 5109 5102 5101 5092 5086
5282 5283 5284 5274 5280 5287 5277 5289 5278 5280 5289 5297 5289 5283 5280 5279 5285 5286 5288 5286 5288 5287 5281 5279 5277 5272 5265 5257 5251 5246 5239 5233 5226 5220 5214 5206 5200 5196 5191 5185 5178 5171 5164 5157 5149 5140 5131 5121 5113 5105 5096 5092 5086 5080
5274 5277 5278 5264 5265 5270 5268 5276 5275 5280 5280 5282 5280 5272 5270 5275 5274 5281 5285 5284 5285 5282 5274 5268 5262 5260 5253 5247 5241 5241 5235 5230 5219 5201 5190 5183 5181 5181 5179 5175 5168 5163 5157 5151 5145 5136 5128 5118 5109 5100 5091 5084 5078 5072
5270 5276 5258 5244 5254 5263 5257 5261 5264 5262 5271 5272 5274 5273 5271 5268 5271 5277 5280 5280 5277 5273 5268 5264 5259 5254 5247 5240 5231 5224 5221 5218 5215 5208 5194 5188 5184 5178 5171 5165 5159 5154 5148 5141 5134 5128 5123 5114 5105 5095 5083 5074 5067 5062
5268 5265 5266 5253 5245 5246 5250 5251 5250 5256 5254 5260 5255 5257 5258 5258 5265 5271 5273 5270 5270 5265 5261 5253 5244 5246 5242 5237 5231 5222 5215 5211 5207 5205 5199 5193 5183 5174 5166 5160 5155 5150 5142 5134 5126 5118 5109 5102 5093 5082 5072 5062 5055 5051
5250 5258 5254 5256 5248 5241 5241 5242 5239 5241 5240 5245 5252 5244 5245 5245 5247 5257 5269 5270 5265 5260 5255 5253 5248 5242 5238 5234 5226 5220 5218 5208 5201 5197 5191 5183 5175 5168 5162 5156 5149 5142 5134 5125 5117 5109 5101 5094 5083 5074 5064 5056 5049 5044
5241 5235 5238 5231 5227 5227 5230 5237 5245 5243 5242 5237 5239 5245 5247 5254 5258 5263 5263 5265 5265 5259 5252 5246 5241 5236 5230 5225 5219 5211 5206 5199 5193 5187 5181 5174 5167 5160 5154 5147 5141 5134 5126 5117 5109 5102 5093 5085 5073 5065 5056 5049 5043 5038